UFO 11 (USA 174)

Last updated on Sat Aug 15 2026 00:02:57 GMT+0000 (Coordinated Universal Time)

1 28117U 03057A 26226.51163582 -.00000118 00000+0 00000+0 0 9992 2 28117 8.9735 33.5026 0003368 127.6731 61.4396 1.00271747 83031
UTC large
Height (km)
Speed (km/s)
/
Latitude / Longitude
Inclination (degrees)
Orbital Period (minutes)
Azimuth
Elevation
Range (km)
Doppler Factor

Next 0 passes for location: London (51.5072 / 0.1276)

No passes found over London.
UFO 11 (USA 174)